Tracking 35274 objects as of 11-Sep-2026
HD Live streaming from Space Station
objects crossing your sky now

FREGAT DEB


FREGAT DEB is no longer on orbit


NORAD ID: 46626
Int'l Code: 2011-037MS
Launch date: July 18, 2011
Source: Commonwealth of Independent States (former USSR) (CIS)
Launch site: TYURATAM MISSILE AND SPACE COMPLEX (TTMTR)
Decay date: 2022-05-13

Note: This is SATELLITE DEBRIS
Your satellite tracking list
Your tracking list is empty




NASA's NSSDC Master Catalog

Two Line Element Set (TLE):
1 46626U 11037MS  22066.29142152  .00647262  00000-0  91650-1 0  9997
2 46626  51.1358  33.0845 0506989 296.8630  58.1326 14.13593154 67849
Source of the keplerian elements: AFSPC